[[{"header":{"parameterUnit":"m.s-1","parameterCategory":1,"la1":30.2991,"la2":30.254,"lo1":-89.0895,"lo2":-89.0444,"dy":0.0017,"dx":0.0017,"nx":28,"ny":28,"refTime":"2025-05-16T03:00:00:Z","depth":0,"parameterNumber":2,"parameterNumberName":"U-component_of_WINDS"},"data":[0,0,0,0,0,0,0,0,0,0,0,0,0,0,0,0,0,0,0,0,0,0,0,0,0,0,0,0,0,0,0,0,0,0,0,0,0,0,0,0,0,0,0,0,0,0,0,0,0,0,0,0,0,0,0,0,0,0,1.3019,1.3018,0,1.2985,1.2984,1.2984,1.2873,1.287,1.2868,1.2865,1.2837,1.2839,1.284,0,0,0,0,0,0,0,0,0,0,0,0,0,1.2991,1.2992,1.3019,1.3018,1.3018,1.2985,1.2984,1.2984,1.2873,1.287,1.2867,1.2864,1.2837,1.2838,1.284,0,0,0,0,0,0,0,0,0,0,0,0,0,1.2985,1.2993,1.3019,1.2958,1.2953,1.2985,1.2984,1.2984,1.2874,1.287,1.2866,1.2863,1.2836,1.2838,1.2841,1.293,0,0,1.2848,1.2849,0,0,0,0,0,0,0,0,1.2986,1.2986,1.2968,1.2963,1.2956,1.2929,1.2964,1.2966,1.2875,1.2904,1.2865,1.2861,1.2871,1.287,1.2872,1.2929,1.2928,1.2848,1.285,1.2851,1.2851,0,0,0,0,0,0,0,1.2986,1.2987,1.3005,1.2968,1.2961,1.2934,1.2929,1.2964,1.2909,1.2901,1.2893,1.289,1.2867,1.2871,1.2871,1.2927,1.2848,1.285,1.2852,1.2853,1.3054,1.3058,0,0,0,0,0,0,1.2995,1.2988,1.3006,1.3004,1.2962,1.2938,1.2932,1.2942,1.2909,1.29,1.2893,1.2885,1.2868,1.2868,1.287,1.2971,1.2851,1.2853,1.2854,1.305,1.3055,1.3059,0,0,0,0,0,0,1.2994,1.2997,1.3008,1.2994,1.2993,1.2942,1.2954,1.2943,1.2946,1.2903,1.2893,1.2906,1.2865,1.2866,1.2915,1.2969,1.2854,1.2856,1.3045,1.3051,1.3057,1.3176,0,0,0,0,0,0,1.2994,1.2998,1.3031,1.2995,1.2994,1.3053,1.2957,1.2945,1.2949,1.2938,1.2912,1.2904,1.2862,1.2912,1.2918,1.297,1.2858,1.304,1.3048,1.3055,1.3167,1.3185,1.3201,0,0,0,0,0,1.2993,1.3067,1.3033,1.3036,1.3034,1.3056,1.3056,1.3004,1.2954,1.2987,1.2959,1.2905,1.2962,1.2918,1.2923,1.2977,1.3037,1.3046,1.3054,1.316,1.3182,1.3201,0,0,0,0,0,0,1.3113,1.3062,1.3023,1.3087,1.3077,1.3038,1.3078,1.303,1.3035,1.3025,1.2962,1.2957,1.3015,1.3001,1.2953,1.3061,1.299,1.3001,1.3069,1.3089,1.3106,1.3108,1.286,0,0,0,0,0,1.3147,1.3167,1.3122,1.3183,1.318,1.313,1.3138,1.3098,1.3086,1.3082,1.3057,1.3048,1.3064,1.3076,1.3088,1.3164,1.3157,1.3204,1.3221,1.3235,1.3245,1.3283,1.3303,1.3088,1.3088,1.3088,0,0,1.3217,1.3191,1.3209,1.3207,1.3194,1.3218,1.3127,1.3157,1.3174,1.3087,1.313,1.3112,1.3098,1.3161,1.3187,1.3151,1.3302,1.3246,1.3257,1.326,1.3294,1.3314,1.3332,1.3094,1.3093,1.3092,0,0,1.3357,1.334,1.3388,1.3376,1.3356,1.3322,1.3334,1.3301,1.3285,1.3327,1.3262,1.3282,1.3311,1.3303,1.3303,1.3437,1.3387,1.3443,1.3531,1.3569,1.3586,1.3601,1.3648,1.3666,1.3452,1.3453,1.3453,0,1.3447,1.3479,1.3419,1.3452,1.3453,1.3372,1.342,1.3413,1.34,1.3403,1.3361,1.3393,1.3378,1.3437,1.347,1.3472,1.3484,1.3446,1.3588,1.3602,1.3615,1.366,1.3678,1.346,1.3459,1.3458,1.3457,0,1.3591,1.3614,1.3655,1.3641,1.3646,1.3688,1.3635,1.3648,1.3608,1.3578,1.3622,1.3601,1.3606,1.3617,1.358,1.3671,1.3649,1.3599,1.3526,1.3643,1.3684,1.3701,1.3469,1.3467,1.3465,1.3463,0,0,1.3807,1.3757,1.3773,1.3765,1.3736,1.3754,1.3791,1.3793,1.3806,1.3799,1.3828,1.3853,1.3805,1.3805,1.3766,1.3799,1.3906,1.3745,1.3744,1.3775,1.4004,1.4042,1.4063,1.3872,1.3875,1.3878,1.4005,0,1.3939,1.3997,1.3944,1.4013,1.4033,1.3956,1.3988,1.3974,1.3948,1.3962,1.3933,1.3951,1.3887,1.3886,1.3916,1.3887,1.3951,1.3877,1.3901,1.3902,1.3907,1.4084,1.4125,1.4246,1.4021,1.4024,1.4026,0,1.4102,1.4099,1.417,1.4134,1.4141,1.417,1.4167,1.4182,1.4165,1.4143,1.4141,1.4092,1.4127,1.4055,1.4102,1.4053,1.4059,1.4046,1.405,1.405,1.3972,1.409,1.4284,1.4302,1.405,1.4048,1.4047,0,1.4252,1.4266,1.4309,1.4305,1.4265,1.4287,1.4272,1.4251,1.4256,1.4254,1.4256,1.4259,1.4262,1.4266,1.4219,1.4171,1.4272,1.4196,1.4255,1.4257,1.4281,1.428,1.4479,1.4285,1.4285,1.4284,1.4284,0,1.4405,1.4451,1.4375,1.4403,1.4452,1.439,1.4441,1.4418,1.44,1.4421,1.4355,1.4378,1.4314,1.433,1.4293,1.4338,1.4339,1.4323,1.4313,1.4329,1.4331,1.4333,1.4323,1.4289,1.4288,1.4287,1.4286,0,1.4581,1.4532,1.4574,1.4532,1.4522,1.4561,1.4525,1.4549,1.4516,1.4544,1.4548,1.4498,1.4513,1.4466,1.4474,1.445,1.4514,1.449,1.4519,1.4512,1.4573,1.4568,1.478,1.4804,1.4596,1.4598,1.46,0,1.4682,1.4715,1.4675,1.4684,1.4671,1.4686,1.4689,1.463,1.4636,1.4618,1.4644,1.4653,1.4657,1.4684,1.465,1.4656,1.4632,1.4705,1.4632,1.4647,1.4632,1.4631,1.4634,1.4721,1.4724,1.4726,1.4727,0,1.4866,1.484,1.4846,1.4843,1.4848,1.4844,1.4835,1.4847,1.4782,1.4793,1.4806,1.4809,1.4815,1.4825,1.4823,1.4808,1.4758,1.475,1.4764,1.4781,1.4796,1.4788,1.456,1.4746,1.4744,1.4743,1.4742,1.4741,1.5008,1.5033,1.5008,1.5016,1.5003,1.4996,1.5015,1.4984,1.4993,1.4992,1.4956,1.4976,1.4957,1.4949,1.4939,1.4955,1.4921,1.4941,1.4946,1.4952,1.4962,1.4793,1.4954,1.4954,1.4953,1.4953,1.4952,0,1.5188,1.5167,1.5175,1.5164,1.5171,1.5119,1.5106,1.5116,1.5134,1.5119,1.5123,1.5138,1.5146,1.5112,1.5115,1.5135,1.5111,1.5138,1.5136,1.5133,1.4993,1.498,1.5156,1.5156,1.5156,1.5156,1.5156,1.5156,1.5282,1.5321,1.5292,1.5324,1.5303,1.532,1.5317,1.531,1.5298,1.5316,1.5322,1.5298,1.5276,1.5277,1.5283,1.5272,1.5277,1.5312,1.5294,1.5163,1.5143,1.5124,1.5112,1.5313,1.5313,1.5432,1.5433,1.5434]},{"header":{"parameterUnit":"m.s-1","parameterCategory":1,"la1":30.2991,"la2":30.254,"lo1":-89.0895,"lo2":-89.0444,"dy":0.0017,"dx":0.0017,"nx":28,"ny":28,"refTime":"2025-05-16T03:00:00:Z","depth":0,"parameterNumber":3,"parameterNumberName":"V-component_of_WINDS"},"data":[0,0,0,0,0,0,0,0,0,0,0,0,0,0,0,0,0,0,0,0,0,0,0,0,0,0,0,0,0,0,0,0,0,0,0,0,0,0,0,0,0,0,0,0,0,0,0,0,0,0,0,0,0,0,0,0,0,0,5.4954,5.4955,0,5.5048,5.5049,5.505,5.4995,5.4992,5.4989,5.4987,5.5079,5.5084,5.5089,0,0,0,0,0,0,0,0,0,0,0,0,0,5.4723,5.4727,5.4954,5.4955,5.4957,5.5048,5.5049,5.505,5.4995,5.4992,5.4989,5.4986,5.5077,5.5083,5.5089,0,0,0,0,0,0,0,0,0,0,0,0,0,5.4821,5.4729,5.4954,5.494,5.494,5.5048,5.5049,5.5051,5.4996,5.4992,5.4988,5.4984,5.5075,5.5083,5.509,5.5215,0,0,5.5113,5.5116,0,0,0,0,0,0,0,0,5.4815,5.4829,5.4941,5.4941,5.4941,5.5006,5.5001,5.5106,5.4997,5.4975,5.4987,5.4982,5.5058,5.5066,5.5092,5.522,5.5223,5.5113,5.5118,5.5121,5.5123,0,0,0,0,0,0,0,5.4808,5.4825,5.4991,5.4943,5.4943,5.4928,5.4937,5.5021,5.5037,5.4976,5.4972,5.4984,5.5057,5.5085,5.5094,5.5225,5.5113,5.512,5.5124,5.5127,5.5458,5.5462,0,0,0,0,0,0,5.4803,5.4819,5.4988,5.4994,5.4867,5.4935,5.4946,5.4989,5.5036,5.504,5.4988,5.4982,5.5075,5.5086,5.5097,5.5247,5.5121,5.5128,5.5132,5.5454,5.5459,5.5464,0,0,0,0,0,0,5.4798,5.4819,5.4984,5.4906,5.4926,5.4943,5.4992,5.4993,5.5021,5.5045,5.5047,5.5014,5.5072,5.5087,5.5186,5.5249,5.5131,5.5138,5.5449,5.5455,5.5461,5.5547,0,0,0,0,0,0,5.4792,5.4817,5.4867,5.4907,5.493,5.5074,5.4996,5.4998,5.5035,5.5028,5.507,5.5074,5.507,5.5176,5.5194,5.5257,5.5143,5.5443,5.5452,5.5459,5.5539,5.5556,5.557,0,0,0,0,0,5.4784,5.4886,5.4869,5.489,5.4992,5.5078,5.509,5.5085,5.504,5.5089,5.5104,5.5072,5.5239,5.5186,5.5206,5.5273,5.5439,5.5449,5.5459,5.5532,5.5553,5.557,0,0,0,0,0,0,5.4852,5.4892,5.4873,5.4992,5.5032,5.5068,5.513,5.5108,5.516,5.5151,5.5141,5.5151,5.5255,5.5273,5.5214,5.5396,5.5332,5.5346,5.5381,5.54,5.5416,5.541,5.515,0,0,0,0,0,5.4881,5.4948,5.4979,5.508,5.5102,5.5112,5.5149,5.5142,5.5182,5.5199,5.5221,5.526,5.5321,5.5361,5.5419,5.5541,5.5549,5.5596,5.5612,5.5625,5.5637,5.5702,5.5724,5.5496,5.5496,5.5496,0,0,5.4941,5.4971,5.5014,5.5095,5.5125,5.5194,5.5127,5.5203,5.5253,5.5209,5.5306,5.5323,5.5366,5.5477,5.5527,5.5495,5.5702,5.5637,5.5647,5.5653,5.5715,5.5736,5.5755,5.5503,5.5501,5.55,0,0,5.5086,5.5116,5.5204,5.5235,5.5282,5.5288,5.5309,5.5349,5.5359,5.5455,5.5424,5.5482,5.5588,5.562,5.565,5.5805,5.5778,5.5824,5.5907,5.597,5.5988,5.6004,5.6059,5.608,5.5836,5.5836,5.5836,0,5.5155,5.5259,5.5252,5.533,5.5366,5.533,5.5418,5.5448,5.5511,5.5536,5.55,5.5631,5.5658,5.5775,5.5813,5.5839,5.5862,5.582,5.5986,5.6002,5.6017,5.607,5.609,5.5842,5.5841,5.584,5.584,0,5.5341,5.5413,5.5478,5.5541,5.5584,5.5666,5.567,5.5714,5.5702,5.5712,5.5809,5.5839,5.5902,5.5929,5.5918,5.6045,5.6024,5.5988,5.5923,5.6044,5.6093,5.6114,5.5849,5.5847,5.5846,5.5844,0,0,5.5533,5.559,5.5614,5.5641,5.5689,5.5744,5.5824,5.5887,5.5924,5.5968,5.6034,5.6124,5.609,5.6124,5.6116,5.6171,5.6292,5.6128,5.6128,5.6158,5.6434,5.6462,5.6486,5.6274,5.6278,5.6281,5.643,0,5.5682,5.5824,5.5819,5.595,5.6016,5.5982,5.6052,5.6088,5.6098,5.6154,5.6165,5.6229,5.6179,5.6199,5.6253,5.6266,5.6348,5.6255,5.6335,5.6338,5.6327,5.6511,5.6542,5.6682,5.645,5.6453,5.6455,0,5.5875,5.5926,5.6065,5.6102,5.6129,5.6192,5.6248,5.6303,5.6342,5.6345,5.6383,5.6365,5.6445,5.6377,5.6486,5.6424,5.6455,5.6467,5.6472,5.648,5.6405,5.6525,5.6726,5.6747,5.6486,5.6483,5.6481,0,5.6002,5.6105,5.6201,5.6225,5.6271,5.6316,5.6337,5.6372,5.641,5.6458,5.6482,5.6538,5.657,5.6613,5.661,5.6562,5.6721,5.6653,5.6725,5.6725,5.6761,5.6759,5.6971,5.6781,5.678,5.678,5.6779,0,5.6169,5.6255,5.6259,5.6318,5.6413,5.6405,5.6499,5.6514,5.6546,5.6607,5.6579,5.6637,5.6629,5.6686,5.6684,5.6775,5.6789,5.6793,5.6792,5.6796,5.6796,5.6818,5.6808,5.6785,5.6784,5.6783,5.6782,0,5.6327,5.6333,5.6436,5.6471,5.6481,5.655,5.6578,5.6634,5.6641,5.6718,5.6735,5.6747,5.6812,5.6814,5.6889,5.6887,5.6998,5.6985,5.6985,5.6983,5.7055,5.7049,5.7289,5.732,5.7109,5.7111,5.7113,0,5.6434,5.65,5.6542,5.6581,5.6605,5.6668,5.6706,5.67,5.674,5.6789,5.6838,5.6901,5.6952,5.7058,5.7072,5.7129,5.7117,5.7198,5.7126,5.7128,5.7119,5.7116,5.7122,5.7212,5.7214,5.7216,5.7218,0,5.6624,5.6623,5.668,5.6737,5.6784,5.6829,5.687,5.6903,5.6901,5.6948,5.7015,5.7054,5.713,5.7193,5.7248,5.7267,5.7243,5.724,5.726,5.7266,5.7264,5.7266,5.7024,5.7235,5.7233,5.7232,5.7231,5.7231,5.676,5.6817,5.6855,5.6918,5.6949,5.6988,5.7041,5.7055,5.7112,5.7174,5.7166,5.7241,5.7276,5.7348,5.7372,5.7429,5.7401,5.743,5.7437,5.7445,5.7453,5.7254,5.7439,5.7438,5.7438,5.7437,5.7437,0,5.6948,5.6971,5.7029,5.7088,5.7138,5.711,5.7154,5.7197,5.7264,5.73,5.735,5.7426,5.7487,5.7505,5.7563,5.7605,5.7595,5.7621,5.7618,5.7623,5.7474,5.7452,5.7628,5.7628,5.7628,5.7628,5.7628,5.7628,5.7052,5.7146,5.715,5.7258,5.7279,5.7353,5.7381,5.7416,5.7444,5.7532,5.7582,5.7594,5.7622,5.7682,5.7735,5.7739,5.7762,5.7792,5.7791,5.7652,5.7633,5.7615,5.7594,5.7797,5.7797,5.7935,5.7937,5.7937]}]]